This is the latest recevied weather packets stored in our database for station/object WB0RXX. If no packets are shown the sender has not sent any weather packets the latest 10 day(s).
| Time | Temp. | Humidity | Pressure | Rain* | Wind** | Luminosity | Snow |
|---|---|---|---|---|---|---|---|
| 1777629004 | 1.11° C | 80% | 1018.6 hPa | 0 mm | - | - | - |
| 1777628405 | 1.11° C | 79% | 1018.7 hPa | 0 mm | - | - | - |
| 1777627807 | 1.67° C | 79% | 1018.7 hPa | 0 mm | - | - | - |
| 1777627203 | 1.67° C | 77% | 1018.6 hPa | 0 mm | - | - | - |
| 1777626603 | 2.22° C | 76% | 1018.7 hPa | 0 mm | - | - | - |
| 1777626019 | 2.22° C | 75% | 1018.4 hPa | 0 mm | - | - | - |
| 1777625404 | 2.78° C | 74% | 1018.3 hPa | 0 mm | - | - | - |
| 1777624804 | 2.78° C | 75% | 1018.4 hPa | 0 mm | - | - | - |
| 1777624205 | 2.78° C | 75% | 1018.2 hPa | 0 mm | - | - | - |
| 1777623605 | 2.78° C | 75% | 1018.3 hPa | 0 mm | - | - | - |
| 1777623003 | 2.78° C | 75% | 1018.2 hPa | 0 mm | - | - | - |
| 1777622405 | 3.33° C | 75% | 1018.2 hPa | 0 mm | - | - | - |
| 1777621804 | 3.33° C | 74% | 1018.3 hPa | 0 mm | - | - | - |
| 1777621204 | 3.33° C | 75% | 1018.3 hPa | 0 mm | - | - | - |
| 1777620604 | 3.33° C | 76% | 1018.4 hPa | 0 mm | - | - | - |
| 1777620003 | 3.89° C | 76% | 1018.4 hPa | 0 mm | - | - | - |
| 1777619403 | 3.89° C | 76% | 1018.6 hPa | 0 mm | - | - | - |
| 1777618803 | 4.44° C | 75% | 1018.4 hPa | 0 mm | - | - | - |
| 1777618204 | 4.44° C | 75% | 1018.3 hPa | 0 mm | - | - | - |
| 1777617604 | 5° C | 75% | 1018.5 hPa | 0 mm | - | - | - |
| 1777617004 | 5° C | 76% | 1018.4 hPa | 0 mm | - | - | - |
| 1777616403 | 5.56° C | 75% | 1018.4 hPa | 0 mm | - | - | - |
| 1777615803 | 5.56° C | 73% | 1018.3 hPa | 0 mm | - | - | - |
| 1777615204 | 6.11° C | 74% | 1018.3 hPa | 0 mm | - | - | - |
| 1777614605 | 5.56° C | 78% | 1018.3 hPa | 0 mm | - | - | - |
* Rain latest hour (hover to see other rain measurements)
** Current wind speed in m/s (hover to see current wind gust speed)